Weather in Zubtsov

Russia / Tver Oblast     56°10′34″N   34°34′57″E
temp.,
°C
wind,
m/s
gust,
m/s
humid.,
%
clouds,
%
prec.,
mm/h
press.,
hPa
HPBL,
m
15 april, thu
thu1500:00+9nne4995100 0.0 1018276
03:00+8nne5993100 0.0 1018418
06:00+8ne51194100 0.4 1018507
09:00+8ne5990100 0.7 1019445
12:00+9ne61083100 0.0 1019625
15:00+11ne71079100 0.0 1018823
18:00+11ne81481100 0.1 1017701
21:00+9ne81685100 0.4 1018645
16 april, fri
fri1600:00+8ene61488100 0.0 1019690
03:00+7ene71491100 0.0 1019578
06:00+6ene61392100 0.3 1020600
09:00+7ene61289100 0.4 1021595
12:00+10ene61079100 0.1 1021761
15:00+12ene61069100 0.1 10221126
18:00+12ene71269100 0.0 10211115
21:00+10ene71476100 0.0 1022757
17 april, sat
sat1700:00+8ene6148099 0.0 1023638
03:00+7ene61281100 0.0 1024516
06:00+6ene6128277 0.0 1024463
09:00+7ene61075100 0.0 1025536
12:00+11ene696396 0.0 1025872
15:00+13ene795593 0.0 10241136
18:00+13ene6105648 0.0 10241140
21:00+9ene613575 0.0 1025544
18 april, sun
sun1800:00+7ne513617 0.0 1025470
03:00+5ne512711 0.0 1026394
06:00+4ne513780 0.0 1026391
09:00+8ene611600 0.0 1026662
12:00+11ene68445 0.0 10261299
15:00+13ene67395 0.0 10251683
18:00+12ene57455 0.0 10251626
21:00+7ne49655 0.0 1026241
19 april, mon
mon1900:00+6ene4117033 0.0 1027301
03:00+4ne378210 0.0 1028155
06:00+3ne388549 0.0 1028166
09:00+8ene476474 0.0 1028480
12:00+12ene575149 0.0 10281673
15:00+11e4553100 0.0 10271500
18:00+10ene2559100 0.0 1027359
21:00+9ene4860100 0.0 1027300